GW5695 Weather Reports


time (UTC)temp
F
wind
direction
speed
knots
gust
knots
rain 1hr
in
rain 24hr
in
rain mn
in
humidity
%
barometer
mb
20260504050721 46 150 0.9 0.9 0.00 0.00 0.00 66 1012.5
20260504050218 46 150 0.0 0.9 0.00 0.00 0.00 71 1012.3
20260504045715 47 149 0.0 0.9 0.00 0.00 0.00 69 1012.4
20260504045215 48 144 1.7 1.7 0.00 0.00 0.00 66 1012.3
20260504044713 48 149 0.0 0.9 0.00 0.00 0.00 56 1012.2
20260504044210 48 147 0.0 0.0 0.00 0.00 0.00 55 1012.2
20260504043707 48 146 0.0 1.7 0.00 0.00 0.00 59 1012.2
20260504043204 47 147 0.0 0.0 0.00 0.00 0.00 60 1012.3
20260504042702 47 151 0.0 0.0 0.00 0.00 0.00 60 1012.0
20260504042158 46 145 0.0 0.0 0.00 0.00 0.00 62 1012.3
20260504041654 46 148 0.0 0.0 0.00 0.00 0.00 65 1012.2
20260504041150 46 149 0.0 0.0 0.00 0.00 0.00 64 1012.3
20260504040647 47 151 0.0 0.0 0.00 0.00 0.00 65 1012.5
20260504040144 47 154 0.9 0.9 0.00 0.00 0.00 62 1012.4
20260504035641 47 147 0.0 0.9 0.00 0.00 0.00 60 1012.2
20260504035137 47 118 1.7 1.7 0.00 0.00 0.00 60 1012.3
20260504034635 47 152 0.9 0.9 0.00 0.00 0.00 59 1012.1
20260504034132 47 158 0.0 0.0 0.00 0.00 0.00 60 1012.4
20260504033629 46 153 0.0 0.0 0.00 0.00 0.00 59 1012.3
20260504033127 46 153 0.0 0.0 0.00 0.00 0.00 60 1012.4
20260504032624 46 153 0.0 0.0 0.00 0.00 0.00 61 1012.6
20260504032121 46 148 0.0 0.0 0.00 0.00 0.00 60 1012.2
20260504031618 47 149 0.0 0.0 0.00 0.00 0.00 58 1012.3
20260504031114 48 139 0.0 0.0 0.00 0.00 0.00 60 1012.2
20260504030611 48 147 0.9 1.7 0.00 0.00 0.00 59 1012.3
20260504030108 47 154 0.9 1.7 0.00 0.00 0.00 58 1012.1
20260504025604 48 151 0.0 0.0 0.00 0.00 0.00 60 1012.3
20260504025101 48 148 0.0 0.0 0.00 0.00 0.00 57 1012.3
20260504024558 48 147 0.0 0.0 0.00 0.00 0.00 51 1012.2
20260504024055 48 149 0.0 0.9 0.00 0.00 0.00 51 1012.1
20260504023552 48 151 0.9 0.9 0.00 0.00 0.00 52 1012.1
20260504023048 47 149 1.7 1.7 0.00 0.00 0.00 54 1012.1
20260504022544 48 153 0.0 0.0 0.00 0.00 0.00 57 1012.3
20260504022040 48 148 0.0 0.0 0.00 0.00 0.00 54 1012.1
20260504021538 48 147 0.0 0.0 0.00 0.00 0.00 55 1012.2
20260504021034 48 148 0.0 0.0 0.00 0.00 0.00 53 1012.2
20260504020531 48 145 0.0 0.0 0.00 0.00 0.00 50 1011.9
20260504020028 48 147 0.0 0.0 0.00 0.00 0.00 47 1011.9
20260504015524 48 149 0.0 0.0 0.00 0.00 0.00 50 1012.0
20260504015020 49 147 0.0 0.9 0.00 0.00 0.00 49 1011.8
20260504014517 49 146 0.0 0.0 0.00 0.00 0.00 48 1011.8
20260504014014 50 145 0.0 0.0 0.00 0.00 0.00 46 1011.8
20260504013512 50 143 0.0 0.0 0.00 0.00 0.00 46 1011.7
20260504013009 50 144 0.0 0.9 0.00 0.00 0.00 45 1011.6
20260504012506 50 145 0.0 0.9 0.00 0.00 0.00 47 1011.5
20260504012004 51 143 0.0 0.0 0.00 0.00 0.00 46 1011.5
20260504011500 52 144 0.0 0.0 0.00 0.00 0.00 45 1011.3
20260504010955 53 145 0.0 0.0 0.00 0.00 0.00 42 1011.4
20260504010452 55 141 0.0 0.9 0.00 0.00 0.00 38 1011.4
20260504005948 56 138 0.9 2.6 0.00 0.00 0.00 32 1011.3
20260504005445 56 136 0.9 3.5 0.00 0.00 0.00 32 1011.2
20260504004943 56 144 2.6 2.6 0.00 0.00 0.00 31 1011.2
20260504004440 56 124 1.7 2.6 0.00 0.00 0.00 32 1011.1
20260504003937 56 151 1.7 2.6 0.00 0.00 0.00 32 1011.1
20260504003433 56 137 2.6 2.6 0.00 0.00 0.00 31 1011.1
20260504002930 57 147 0.9 2.6 0.00 0.00 0.00 31 1011.0
20260504002427 57 138 2.6 2.6 0.00 0.00 0.00 30 1011.1
20260504001924 57 135 1.7 1.7 0.00 0.00 0.00 31 1011.0
20260504001422 58 144 0.9 1.7 0.00 0.00 0.00 31 1011.0
20260504000918 59 139 0.9 1.7 0.00 0.00 0.00 30 1011.1
20260504000416 60 144 0.0 0.9 0.00 0.00 0.00 29 1011.1
20260503235913 61 126 1.7 2.6 0.00 0.00 0.00 26 1011.2
20260503235410 62 133 0.0 0.9 0.00 0.00 0.00 27 1010.9
20260503234908 63 140 0.9 2.6 0.00 0.00 0.00 25 1011.0
20260503234405 64 146 0.0 0.9 0.00 0.00 0.00 26 1011.0
20260503233903 63 148 0.9 1.7 0.00 0.00 0.00 25 1011.1
20260503233359 64 119 1.7 3.5 0.00 0.00 0.00 24 1011.1
20260503232855 64 150 0.9 1.7 0.00 0.00 0.00 24 1011.1
20260503232353 66 134 0.9 1.7 0.00 0.00 0.00 23 1011.0
20260503231850 65 155 0.0 0.9 0.00 0.00 0.00 24 1010.9
20260503231347 65 11 1.7 2.6 0.00 0.00 0.00 24 1010.9
20260503230843 65 136 1.7 2.6 0.00 0.00 0.00 22 1010.8
20260503230340 64 62 1.7 2.6 0.00 0.00 0.00 23 1010.8
20260503225838 65 127 0.9 5.2 0.00 0.00 0.00 23 1011.0
20260503225334 63 116 0.9 1.7 0.00 0.00 0.00 26 1010.9
20260503224830 63 135 2.6 6.1 0.00 0.00 0.00 24 1010.8
20260503224328 63 122 6.1 7.8 0.00 0.00 0.00 23 1010.8
20260503223825 64 15 4.3 5.2 0.00 0.00 0.00 24 1010.5
20260503223323 65 331 5.2 6.1 0.00 0.00 0.00 23 1010.9
20260503222818 64 33 1.7 2.6 0.00 0.00 0.00 24 1010.7
20260503222317 64 52 1.7 3.5 0.00 0.00 0.00 23 1010.5
20260503221815 63 95 0.9 3.5 0.00 0.00 0.00 23 1010.7
20260503221313 63 20 3.5 7.0 0.00 0.00 0.00 24 1010.8
20260503220809 63 247 3.5 9.6 0.00 0.00 0.00 24 1010.5
20260503220306 64 72 1.7 3.5 0.00 0.00 0.00 25 1010.9
20260503215802 63 187 4.3 6.1 0.00 0.00 0.00 23 1010.9
20260503215259 62 71 2.6 8.7 0.00 0.00 0.00 23 1011.0
20260503214757 63 306 7.0 12.2 0.00 0.00 0.00 23 1010.7
20260503214254 64 26 3.5 6.1 0.00 0.00 0.00 23 1010.9
20260503213752 64 6 7.8 12.2 0.00 0.00 0.00 23 1010.9
20260503213249 63 315 2.6 6.1 0.00 0.00 0.00 23 1010.8
20260503212746 63 1 2.6 7.8 0.00 0.00 0.00 23 1010.9
20260503212244 63 25 7.0 9.6 0.00 0.00 0.00 22 1011.0
20260503211741 64 296 9.6 13.0 0.00 0.00 0.00 24 1011.0
20260503211237 63 292 6.1 8.7 0.00 0.00 0.00 24 1011.1
20260503210732 63 80 2.6 7.8 0.00 0.00 0.00 23 1010.9
20260503210230 63 124 1.7 5.2 0.00 0.00 0.00 23 1010.9
20260503205725 62 9 7.8 9.6 0.00 0.00 0.00 24 1011.1
20260503205222 62 3 7.8 12.2 0.00 0.00 0.00 26 1011.1
20260503204718 62 312 7.0 11.3 0.00 0.00 0.00 23 1011.1
20260503204216 62 327 7.0 11.3 0.00 0.00 0.00 23 1011.2
20260503203713 63 123 5.2 7.0 0.00 0.00 0.00 25 1011.1
20260503203211 62 337 4.3 6.1 0.00 0.00 0.00 26 1011.3
20260503202708 62 359 4.3 9.6 0.00 0.00 0.00 23 1011.4
20260503202206 62 140 1.7 7.0 0.00 0.00 0.00 23 1011.4
20260503201703 61 330 2.6 3.5 0.00 0.00 0.00 24 1011.3
20260503201200 60 97 2.6 3.5 0.00 0.00 0.00 27 1011.6
20260503200656 62 9 8.7 11.3 0.00 0.00 0.00 24 1011.7
20260503200153 60 156 0.0 1.7 0.00 0.00 0.00 25 1011.7
20260503195650 61 280 5.2 7.8 0.00 0.00 0.00 28 1011.8
20260503195147 62 330 7.8 8.7 0.00 0.00 0.00 24 1011.9
20260503194644 61 345 6.1 7.0 0.00 0.00 0.00 25 1012.0
20260503194139 61 156 3.5 11.3 0.00 0.00 0.00 25 1012.0
20260503193637 59 18 8.7 11.3 0.00 0.00 0.00 28 1012.0
20260503193132 59 157 7.8 16.5 0.00 0.00 0.00 25 1011.9
20260503192628 60 346 7.8 12.2 0.00 0.00 0.00 26 1012.1
20260503192124 59 326 10.4 13.9 0.00 0.00 0.00 25 1012.3
20260503191621 60 295 9.6 15.6 0.00 0.00 0.00 25 1012.4
20260503191118 60 30 9.6 13.0 0.00 0.00 0.00 25 1012.3
20260503190615 61 84 0.9 6.1 0.00 0.00 0.00 26 1012.5
20260503190112 60 341 4.3 12.2 0.00 0.00 0.00 28 1012.4
20260503185608 58 117 1.7 6.1 0.00 0.00 0.00 28 1012.5
20260503185108 58 21 4.3 7.0 0.00 0.00 0.00 27 1012.7
20260503184604 59 45 6.1 12.2 0.00 0.00 0.00 28 1012.8
20260503184100 59 318 4.3 7.8 0.00 0.00 0.00 26 1012.8
20260503183557 58 306 5.2 7.8 0.00 0.00 0.00 28 1012.8
20260503183054 58 335 4.3 8.7 0.00 0.00 0.00 28 1013.0
20260503182553 58 308 13.0 14.8 0.00 0.00 0.00 29 1013.1
20260503182050 59 327 7.8 11.3 0.00 0.00 0.00 30 1012.9
20260503181547 59 103 3.5 5.2 0.00 0.00 0.00 31 1012.9
20260503181043 57 149 0.9 3.5 0.00 0.00 0.00 30 1012.9
20260503180541 57 318 4.3 7.0 0.00 0.00 0.00 30 1013.0
20260503180038 57 335 5.2 9.6 0.00 0.00 0.00 30 1013.1
20260503175535 57 9 5.2 8.7 0.00 0.00 0.00 31 1013.1
20260503175033 56 306 5.2 9.6 0.00 0.00 0.00 33 1013.0
20260503174530 57 128 6.1 14.8 0.00 0.00 0.00 30 1013.2
20260503174026 57 333 2.6 6.1 0.00 0.00 0.00 32 1013.0
20260503173521 57 61 6.1 8.7 0.00 0.00 0.00 30 1013.2
20260503173017 56 111 1.7 5.2 0.00 0.00 0.00 31 1013.3
20260503172515 55 320 8.7 12.2 0.00 0.00 0.00 32 1013.2
20260503172012 56 158 2.6 11.3 0.00 0.00 0.00 31 1013.3
20260503171509 54 165 1.7 9.6 0.00 0.00 0.00 32 1013.3
20260503171006 55 120 5.2 9.6 0.00 0.00 0.00 32 1013.5
20260503170502 55 322 9.6 12.2 0.00 0.00 0.00 32 1013.6
20260503150855 50 106 1.7 6.1 0.00 0.00 0.00 38 1014.8
20260503150351 49 206 3.5 7.8 0.00 0.00 0.00 38 1014.6
20260503140315 48 341 1.7 2.6 0.00 0.00 0.00 42 1014.7
20260503131244 45 357 7.8 11.3 0.00 0.00 0.00 48 1014.8
20260503130742 44 29 5.2 7.8 0.00 0.00 0.00 48 1014.6
20260503130239 45 342 6.1 7.0 0.00 0.00 0.00 48 1014.9
20260503120205 42 111 1.7 7.0 0.00 0.00 0.00 55 1014.7
20260503110632 39 148 0.9 1.7 0.00 0.00 0.00 60 1013.9
20260503110130 38 140 0.9 0.9 0.00 0.00 0.00 63 1014.0
20260503081446 41 139 0.9 1.7 0.00 0.00 0.00 63 1012.2
20260503080943 41 157 0.9 1.7 0.00 0.00 0.00 63 1012.2
20260503080439 41 130 0.9 1.7 0.00 0.00 0.00 63 1011.9
20260503072916 41 75 1.7 1.7 0.00 0.00 0.00 63 1011.9
20260503072413 41 130 0.9 0.9 0.00 0.00 0.00 63 1011.9
20260503071910 41 138 0.0 0.9 0.00 0.00 0.00 63 1011.8
20260503071407 41 150 0.0 0.9 0.00 0.00 0.00 62 1011.7
20260503070903 42 119 0.0 0.9 0.00 0.00 0.00 61 1011.8
20260503070400 42 127 1.7 6.1 0.00 0.00 0.00 60 1011.7
20260503060326 44 133 0.9 1.7 0.00 0.00 0.00 60 1011.5
20260503054814 44 125 1.7 2.6 0.00 0.00 0.00 61 1011.5
20260503054310 44 141 0.9 1.7 0.00 0.00 0.00 62 1011.5
20260503053808 44 149 0.9 3.5 0.00 0.00 0.00 61 1011.5
20260503053306 44 345 1.7 2.6 0.00 0.00 0.00 61 1011.5
20260503052802 44 144 0.9 3.5 0.00 0.00 0.00 62 1011.5
20260503052259 43 142 0.0 1.7 0.00 0.00 0.00 63 1011.3